User: anonymous   Login
Location: Brno
(49.2000°N, 16.6330°E)
Time: 06:16:04
(UTC+02:00)
Language:

CARTOSAT-1 - Orbit

View from above orbital plane
View from above orbital plane
View from above satellite
View from above satellite

Ground track
Ground track

The orbit data is extracted from the following two-line orbital elements,

1 28649U 05017A   14297.83870061  .00001917  00000-0  23951-3 0  7346
2 28649 097.8232 009.2872 0000284 037.6764 322.4470 14.83480635512717
Epoch (UTC): 24 October 2014 20:07:43
Eccentricity: 0.0000284
inclination: 97.8232°
perigee height: 618 km
apogee height: 618 km
right ascension of ascending node: 9.2872°
argument of perigee: 37.6764°
revolutions per day: 14.83480635
mean anomaly at epoch: 322.4470°
orbit number at epoch: 51271

The dashed part of the orbit path shows where the satellite is in the earth's shadow,  

DLR